Content
SEND FEEDBACK

Daily
Averages
Monthly
Summary
France

AVIGNON, FRANCE


Home > Europe > France
Elevation: 187 feet     Latitude: 44 00N     Longitude: 004 45E

WEATHER
 
SELECT A DAY
Number of Records: 167,100;   Date Range: 5/17/04 - 7/20/14
 
SHARE

PRINT THIS DATA

[ ← Previous Day ]
WEATHER ALMANAC - DECEMBER 8, 2013
[ Next Day → ]
[ °C ]   °F
Weather ElementAverageHighLow
Temperature35.8 °F53.6 °F (2:30 pm)24.8 °F (7:30 am)
Dewpoint27.9 °F33.8 °F (12:30 pm)23 °F (2:30 am)
Humidity75.5 %93 % (2:00 am)44 % (3:00 pm)
Barometer30.37 in30.45 in (10:30 pm)30.33 in (12:30 am)
Wind Speed2.6 mph6.9 mph (3:00 pm)
Weather ElementAverage
Visibility6.1 mi
Wind DirectionESE (115.3 °)

Weather ElementTotal
Precipitation---
Heating Degree Days25.8 (Base 65)
Averaged from 47 records on December 8, 2013
WEATHER CONDITIONS BREAKOUT
WIND DIRECTION BREAKOUT
WEATHER BY HOUR - DECEMBER 8, 2013
[ °C ]   °F
Local TimeTemperatureDewpointHumidityBarometerVisibilityWind DirectionWind SpeedGust SpeedPrecipitationEventsConditions
12:30 AM30.2 °F24.8 °F80 %30.33 in6.2 miCalm
1:00 AM28.4 °F24.8 °F86 %30.33 in6.2 miSouth (170°)3.5 mph
1:30 AM28.4 °F24.8 °F86 %30.33 in6.2 miSSE (150°)2.3 mph
2:00 AM26.6 °F24.8 °F93 %30.33 in6.2 miVariable2.3 mph
2:30 AM26.6 °F23.0 °F86 %30.33 in6.2 miCalm
3:00 AM26.6 °F24.8 °F93 %30.33 in6.2 miVariable1.2 mph
3:30 AM26.6 °F23.0 °F86 %30.33 in6.2 miCalm
4:00 AM26.6 °F23.0 °F86 %30.33 in6.2 miCalm
4:30 AM26.6 °F23.0 °F86 %30.33 in6.2 miVariable1.2 mph
5:00 AM26.6 °F24.8 °F93 %30.33 in6.2 miSouth (180°)5.8 mph
5:30 AM26.6 °F24.8 °F93 %30.33 in6.2 miCalm
6:00 AM26.6 °F24.8 °F93 %30.33 in6.2 miSouth (170°)5.8 mph
6:30 AM28.4 °F26.6 °F93 %30.33 in6.2 miVariable3.5 mph
7:00 AM26.6 °F24.8 °F93 %30.33 in6.2 miSSE (160°)2.3 mph
7:30 AM24.8 °F23.0 °F93 %30.36 in6.2 miSSE (160°)2.3 mph
8:00 AM24.8 °F23.0 °F93 %30.36 in6.2 miCalm
8:30 AM24.8 °F23.0 °F93 %30.36 in6.2 miSouth (170°)2.3 mph
9:00 AM30.2 °F26.6 °F86 %30.36 in6.2 miSouth (170°)2.3 mph
9:30 AM33.8 °F30.2 °F87 %30.36 in6.2 miSouth (170°)3.5 mph
10:00 AM39.2 °F30.2 °F70 %30.39 in3.1 miVariable1.2 mphHaze
10:30 AM41.0 °F30.2 °F65 %30.39 in6.2 miVariable2.3 mph
11:00 AM42.8 °F32.0 °F66 %30.39 in6.2 miNorth (360°)4.6 mph
11:30 AM44.6 °F32.0 °F61 %30.39 in6.2 miNorth (360°)4.6 mph
12:00 PM46.4 °F32.0 °F57 %30.39 in6.2 miNorth (360°)4.6 mph
12:30 PM48.2 °F33.8 °F58 %30.36 in6.2 miNorth (10°)4.6 mph
1:00 PM50.0 °F33.8 °F54 %30.36 in6.2 miNorth (360°)3.5 mph
1:30 PM50.0 °F33.8 °F54 %30.36 in6.2 miNNE (20°)4.6 mph
2:00 PM51.8 °F33.8 °F50 %30.36 in6.2 miVariable3.5 mph
2:30 PM53.6 °F33.8 °F47 %30.36 in6.2 miNW (310°)4.6 mph
3:00 PM53.6 °F32.0 °F44 %30.36 in6.2 miNorth (360°)6.9 mph
3:30 PM53.6 °F32.0 °F44 %30.36 in6.2 miNorth (10°)6.9 mph
4:00 PM51.8 °F33.8 °F50 %30.36 in6.2 miNNW (340°)4.6 mph
4:30 PM50.0 °F33.8 °F54 %30.36 in6.2 miNNW (330°)4.6 mph
5:00 PM46.4 °F32.0 °F57 %30.36 in6.2 miNorth (350°)4.6 mph
5:30 PM44.6 °F32.0 °F61 %30.36 in6.2 miNorth (10°)3.5 mph
6:00 PM41.0 °F30.2 °F65 %30.36 in6.2 miVariable2.3 mph
6:30 PM39.2 °F30.2 °F70 %30.39 in6.2 miNNE (20°)1.2 mph
7:00 PM35.6 °F28.4 °F75 %30.39 in6.2 miCalm
7:30 PM35.6 °F28.4 °F75 %30.39 in6.2 miCalm
8:00 PM33.8 °F26.6 °F75 %30.39 in6.2 miEast (100°)1.2 mph
8:30 PM32.0 °F26.6 °F80 %30.42 in6.2 miESE (110°)1.2 mph
9:00 PM30.2 °F26.6 °F86 %30.42 in6.2 miSE (140°)1.2 mph
9:30 PM30.2 °F26.6 °F86 %30.42 in6.2 miVariable2.3 mph
10:00 PM30.2 °F26.6 °F86 %30.42 in6.2 miVariable1.2 mph
10:30 PM28.4 °F24.8 °F86 %30.45 in5.6 miSSE (160°)2.3 mph
11:00 PM28.4 °F24.8 °F86 %30.45 in6.2 miEast (100°)1.2 mph
11:30 PM28.4 °F24.8 °F86 %30.45 in5.0 miESE (110°)2.3 mph
Hourly data recorded from LFMV, located miles away from Avignon, France







STORIES FROM OUR PARTNERS